Location: Lecco
(45.8566°N, 9.3977°E)
Time: 01:45:10
(UTC+02:00)

deb Explorer IX - Visible Passes

Search period start: 09 May 2021 00:00
Search period end: 19 May 2021 00:00
Orbit: 541 x 1098 km, 38.8° (Epoch: 07 May)

Date Brightness Start Highest point End Pass type
(mag) Time Alt. Az. Time Alt. Az. Time Alt. Az.
09 May ? 04:03:26 29° SSW 04:03:31 29° SSW 04:07:17 10° SE visible
10 May ? 03:41:20 24° SSE 03:41:20 24° SSE 03:43:43 10° SE visible
11 May ? 03:19:33 13° SE 03:19:33 13° SE 03:20:08 10° SE visible
11 May ? 05:00:52 11° SW 05:01:53 12° SSW 05:03:38 10° S visible
11 May ? 21:32:08 10° SSE 21:33:33 11° SE 21:34:51 10° SE visible
11 May ? 23:14:26 10° SW 23:16:15 17° SSW 23:16:15 17° SSW visible
12 May ? 04:39:31 11° SSW 04:39:31 11° SSW 04:40:10 10° S visible
12 May ? 22:50:26 10° SW 22:55:32 28° SSE 22:55:32 28° SSE visible
13 May ? 00:36:36 10° WSW 00:36:53 11° WSW 00:36:53 11° WSW visible
13 May ? 22:26:25 10° SW 22:32:03 29° SSE 22:34:20 23° SE visible
14 May ? 00:12:37 10° WSW 00:15:40 26° SW 00:15:40 26° SW visible
14 May ? 22:02:25 10° SW 22:08:12 29° SSE 22:12:41 13° ESE visible
14 May ? 23:48:38 10° WSW 23:53:59 41° SSW 23:53:59 41° SSW visible
15 May ? 21:38:25 10° SW 21:44:21 30° SSE 21:49:44 10° E visible
15 May ? 23:24:38 10° WSW 23:30:54 43° S 23:31:56 40° SSE visible
16 May ? 01:11:49 10° W 01:13:12 16° WSW 01:13:12 16° WSW visible
16 May ? 21:14:25 10° SW 21:20:27 31° SSE 21:26:01 10° E visible
16 May ? 23:00:38 10° WSW 23:07:04 44° S 23:09:37 29° SE visible
17 May ? 00:47:49 10° W 00:50:53 25° WSW 00:50:53 25° WSW visible
17 May ? 22:36:39 10° WSW 22:43:13 45° S 22:47:08 21° ESE visible
18 May ? 00:23:50 10° W 00:28:22 33° SW 00:28:22 33° SW visible
18 May ? 22:12:39 10° WSW 22:19:20 46° S 22:24:31 14° ESE visible
